When you browse on this site, cookies collect data to enhance your experience and personalize the content and advertising you see.
Visit our Privacy Policy to learn more. By continuing to use the site, you agree to this use of cookies and data.
  • In Romania
  • List of Countries
  • For 7 days
  • Water Temperature
  • Weather Map
  • Weather Widgets
  • user-avatar
    Login

    Hourly Weather Førde

    Today, 23 January, Thursday

    Time Temperature Precipitation Wind Pressure Humidity
    00:00 -3°C° 0.1 mm 4 mps 715 mmHg 84%
    01:00 -3°C° 0.1 mm 4 mps 714 mmHg 85%
    02:00 -2°C° 0.1 mm 4 mps 713 mmHg 87%
    03:00 -2°C° 0.1 mm 4 mps 713 mmHg 88%
    04:00 -1°C° 0.1 mm 4 mps 712 mmHg 91%
    05:00 -1°C° 0.1 mm 4 mps 712 mmHg 93%
    06:00 0°C° 0.1 mm 5 mps 711 mmHg 96%
    07:00 0°C° 0.6 mm 5 mps 710 mmHg 96%
    08:00 0°C° 0.6 mm 5 mps 710 mmHg 97%
    09:00 0°C° 0.6 mm 5 mps 709 mmHg 97%
    10:00 0°C° 3 mm 5 mps 708 mmHg 97%
    11:00 0°C° 3 mm 5 mps 708 mmHg 98%
    12:00 0°C° 3 mm 5 mps 707 mmHg 98%
    13:00 +1°C° 1.9 mm 5 mps 707 mmHg 98%
    14:00 +1°C° 1.9 mm 5 mps 706 mmHg 98%
    15:00 +1°C° 1.9 mm 5 mps 706 mmHg 98%
    16:00 +1°C° 1.4 mm 5 mps 705 mmHg 97%
    17:00 +1°C° 1.4 mm 5 mps 705 mmHg 95%
    18:00 0°C° 1.4 mm 5 mps 705 mmHg 94%
    19:00 0°C° 0.7 mm 5 mps 705 mmHg 94%
    20:00 0°C° 0.7 mm 5 mps 704 mmHg 94%
    21:00 -1°C° 0.7 mm 5 mps 704 mmHg 94%
    22:00 -1°C° 0.6 mm 5 mps 704 mmHg 94%
    23:00 -1°C° 0.6 mm 5 mps 704 mmHg 94%

    Tomorrow, 24 January, Friday

    Time Temperature Precipitation Wind Pressure Humidity
    00:00 -2°C° 0.6 mm 5 mps 704 mmHg 94%
    01:00 -3°C° 0.9 mm 6 mps 703 mmHg 93%
    02:00 -3°C° 0.9 mm 6 mps 703 mmHg 92%
    03:00 -3°C° 0.9 mm 6 mps 703 mmHg 92%
    04:00 -3°C° 1 mm 6 mps 703 mmHg 91%
    05:00 -3°C° 1 mm 6 mps 702 mmHg 91%
    06:00 -3°C° 1 mm 7 mps 702 mmHg 90%
    07:00 -3°C° 0.8 mm 6 mps 702 mmHg 91%
    08:00 -4°C° 0.8 mm 6 mps 702 mmHg 92%
    09:00 -4°C° 0.8 mm 6 mps 702 mmHg 93%
    10:00 -4°C° 0.8 mm 6 mps 702 mmHg 93%
    11:00 -4°C° 0.8 mm 6 mps 702 mmHg 92%
    12:00 -4°C° 0.8 mm 6 mps 702 mmHg 92%
    13:00 -4°C° 0.8 mm 6 mps 702 mmHg 91%
    14:00 -3°C° 0.8 mm 6 mps 702 mmHg 91%
    15:00 -3°C° 0.8 mm 6 mps 703 mmHg 91%
    16:00 -3°C° 0.8 mm 6 mps 703 mmHg 91%
    17:00 -2°C° 0.8 mm 5 mps 703 mmHg 92%
    18:00 -2°C° 0.8 mm 5 mps 703 mmHg 93%
    19:00 -2°C° 0.6 mm 4 mps 703 mmHg 93%
    20:00 -2°C° 0.6 mm 4 mps 703 mmHg 93%
    21:00 -2°C° 0.6 mm 4 mps 703 mmHg 93%
    22:00 -2°C° 0.5 mm 4 mps 703 mmHg 93%
    23:00 -1°C° 0.5 mm 3 mps 703 mmHg 94%

    Day after tomorrow, 25 January, Saturday

    Time Temperature Precipitation Wind Pressure Humidity
    00:00 -1°C° 0.5 mm 3 mps 703 mmHg 94%
    01:00 -1°C° 0.8 mm 3 mps 703 mmHg 95%
    02:00 -1°C° 0.8 mm 3 mps 703 mmHg 96%
    03:00 -1°C° 0.8 mm 3 mps 703 mmHg 98%
    04:00 -1°C° 1.3 mm 3 mps 703 mmHg 98%
    05:00 -1°C° 1.3 mm 3 mps 702 mmHg 98%
    06:00 -2°C° 1.3 mm 4 mps 702 mmHg 98%
    07:00 -2°C° 1.8 mm 4 mps 702 mmHg 98%
    08:00 -1°C° 1.8 mm 4 mps 702 mmHg 98%
    09:00 -1°C° 1.8 mm 4 mps 702 mmHg 98%
    10:00 -1°C° 1.4 mm 4 mps 702 mmHg 98%
    11:00 -1°C° 1.4 mm 4 mps 702 mmHg 98%
    12:00 0°C° 1.4 mm 4 mps 702 mmHg 98%
    13:00 0°C° 1 mm 4 mps 701 mmHg 98%
    14:00 0°C° 1 mm 4 mps 701 mmHg 98%
    15:00 0°C° 1 mm 4 mps 701 mmHg 97%
    16:00 0°C° 0.2 mm 4 mps 700 mmHg 97%
    17:00 0°C° 0.2 mm 4 mps 700 mmHg 97%
    18:00 0°C° 0.2 mm 4 mps 700 mmHg 97%
    19:00 0°C° 0.3 mm 4 mps 700 mmHg 97%
    20:00 0°C° 0.3 mm 4 mps 700 mmHg 97%
    21:00 0°C° 0.3 mm 4 mps 700 mmHg 97%
    22:00 0°C° 0.2 mm 4 mps 700 mmHg 97%
    23:00 0°C° 0.2 mm 4 mps 700 mmHg 97%

    26 January, Sunday

    Time Temperature Precipitation Wind Pressure Humidity
    00:00 -1°C° 0.2 mm 4 mps 699 mmHg 97%
    01:00 -1°C° 0.3 mm 4 mps 699 mmHg 97%
    02:00 -1°C° 0.3 mm 4 mps 699 mmHg 97%
    03:00 -1°C° 0.3 mm 4 mps 698 mmHg 97%
    04:00 -1°C° 0.3 mm 4 mps 698 mmHg 97%
    05:00 -1°C° 0.3 mm 4 mps 698 mmHg 97%
    06:00 0°C° 0.3 mm 3 mps 697 mmHg 97%
    07:00 0°C° 0.3 mm 3 mps 697 mmHg 96%
    08:00 -1°C° 0.3 mm 4 mps 697 mmHg 96%
    09:00 -1°C° 0.3 mm 4 mps 697 mmHg 96%
    10:00 -1°C° 0.6 mm 4 mps 696 mmHg 96%
    11:00 -1°C° 0.6 mm 4 mps 696 mmHg 96%
    12:00 0°C° 0.6 mm 4 mps 695 mmHg 96%
    13:00 0°C° 0.6 mm 4 mps 695 mmHg 96%
    14:00 0°C° 0.6 mm 4 mps 694 mmHg 96%
    15:00 0°C° 0.6 mm 4 mps 693 mmHg 96%
    16:00 -1°C° 0.8 mm 4 mps 693 mmHg 96%
    17:00 -1°C° 0.8 mm 4 mps 692 mmHg 96%
    18:00 -1°C° 0.8 mm 4 mps 692 mmHg 97%
    19:00 0°C° 2.9 mm 3 mps 691 mmHg 97%
    20:00 -1°C° 2.9 mm 3 mps 691 mmHg 98%
    21:00 -1°C° 2.9 mm 3 mps 691 mmHg 98%
    22:00 -2°C° 2.3 mm 3 mps 691 mmHg 98%
    23:00 -2°C° 2.3 mm 3 mps 691 mmHg 97%

    27 January, Monday

    Time Temperature Precipitation Wind Pressure Humidity
    00:00 -2°C° 2.3 mm 3 mps 691 mmHg 96%
    01:00 -2°C° 1.6 mm 3 mps 691 mmHg 95%
    02:00 -2°C° 1.6 mm 3 mps 691 mmHg 95%
    03:00 -2°C° 1.6 mm 3 mps 691 mmHg 94%
    04:00 -4°C° 0.8 mm 3 mps 691 mmHg 92%
    05:00 -4°C° 0.8 mm 3 mps 691 mmHg 90%
    06:00 -4°C° 0.8 mm 4 mps 692 mmHg 88%
    07:00 -4°C° 0.4 mm 4 mps 692 mmHg 89%
    08:00 -4°C° 0.4 mm 4 mps 692 mmHg 90%
    09:00 -5°C° 0.4 mm 4 mps 693 mmHg 92%
    10:00 -4°C° 1.1 mm 4 mps 693 mmHg 89%
    11:00 -4°C° 1.1 mm 5 mps 693 mmHg 86%
    12:00 -4°C° 1.1 mm 5 mps 693 mmHg 83%
    13:00 -4°C° 0.5 mm 5 mps 693 mmHg 84%
    14:00 -4°C° 0.5 mm 4 mps 693 mmHg 85%
    15:00 -4°C° 0.5 mm 4 mps 693 mmHg 87%
    16:00 -4°C° 0.1 mm 4 mps 692 mmHg 87%
    17:00 -5°C° 0.1 mm 4 mps 690 mmHg 87%
    18:00 -5°C° 0.1 mm 4 mps 689 mmHg 87%
    19:00 -6°C° 0 mm 5 mps 687 mmHg 85%
    20:00 -6°C° 0 mm 5 mps 685 mmHg 83%
    21:00 -6°C° 0 mm 6 mps 683 mmHg 81%
    22:00 -6°C° 1.1 mm 6 mps 681 mmHg 85%
    23:00 -6°C° 1.1 mm 6 mps 679 mmHg 89%

    28 January, Tuesday

    Time Temperature Precipitation Wind Pressure Humidity
    00:00 -6°C° 1.1 mm 6 mps 677 mmHg 93%
    01:00 -6°C° 3.8 mm 5 mps 676 mmHg 94%
    02:00 -5°C° 3.8 mm 4 mps 676 mmHg 94%
    03:00 -5°C° 3.8 mm 4 mps 676 mmHg 95%
    04:00 -6°C° 0.8 mm 5 mps 676 mmHg 91%
    05:00 -5°C° 0.8 mm 5 mps 676 mmHg 87%
    06:00 -5°C° 0.8 mm 6 mps 676 mmHg 84%
    07:00 -5°C° 0.7 mm 6 mps 676 mmHg 84%
    08:00 -6°C° 0.7 mm 7 mps 676 mmHg 84%
    09:00 -4°C° 0.7 mm 7 mps 676 mmHg 84%
    10:00 -5°C° 0.8 mm 8 mps 675 mmHg 82%
    11:00 -5°C° 0.8 mm 8 mps 675 mmHg 80%
    12:00 -5°C° 0.8 mm 9 mps 674 mmHg 78%
    13:00 -5°C° 0.4 mm 9 mps 673 mmHg 81%
    14:00 -5°C° 0.4 mm 8 mps 673 mmHg 85%
    15:00 -6°C° 0.4 mm 7 mps 672 mmHg 89%
    16:00 -5°C° 1.3 mm 8 mps 672 mmHg 89%
    17:00 -4°C° 1.3 mm 10 mps 673 mmHg 89%
    18:00 -4°C° 1.3 mm 11 mps 673 mmHg 89%
    19:00 -3°C° 0.9 mm 11 mps 673 mmHg 87%
    20:00 -3°C° 0.9 mm 11 mps 674 mmHg 85%
    21:00 -3°C° 0.9 mm 11 mps 674 mmHg 82%
    22:00 -3°C° 1 mm 11 mps 675 mmHg 83%
    23:00 -3°C° 1 mm 11 mps 675 mmHg 83%
    Show more